Location: Newark
(42.9277°N, 71.8621°W)
Time: 08:02:16
(UTC+00:00)

Tiros 1 despin weight - All Passes

Search period start: 26 May 2020 00:00
Search period end: 05 June 2020 00:00
Orbit: 594 x 642 km, 48.2° (Epoch: 24 May)

Date Brightness Start Highest point End Pass type
(mag) Time Alt. Az. Time Alt. Az. Time Alt. Az.
26 May - 15:26:52 10° S 15:29:54 18° SE 15:32:56 10° E daylight
26 May - 17:06:22 10° SW 17:10:57 76° SSE 17:15:28 10° ENE daylight
26 May - 18:48:20 10° W 18:52:44 46° N 18:57:04 10° ENE daylight
26 May - 20:30:29 10° WNW 20:34:51 47° N 20:39:08 10° E daylight
26 May - 22:12:08 10° WNW 22:16:35 70° SSW 22:20:58 10° SE daylight
26 May - 23:54:57 10° W 23:57:31 15° SW 00:00:04 10° S daylight
27 May - 15:42:02 10° SSW 15:46:07 32° SE 15:50:10 10° ENE daylight
27 May - 17:22:53 10° WSW 17:27:28 72° NNW 17:31:59 10° ENE daylight
27 May - 19:05:08 10° WNW 19:09:27 42° N 19:13:43 10° ENE daylight
27 May - 20:47:03 10° WNW 20:51:30 61° NNE 20:55:54 10° E daylight
27 May - 22:28:47 10° WNW 22:32:57 40° SW 22:37:05 10° SSE daylight
28 May - 14:19:54 10° SSE 14:21:36 12° SE 14:23:18 10° ESE daylight
28 May - 15:57:56 10° SW 16:02:27 56° SSE 16:06:55 10° ENE daylight
28 May - 17:39:37 10° W 17:44:06 52° NNW 17:48:31 10° ENE daylight
28 May - 19:21:51 10° WNW 19:26:11 43° N 19:30:29 10° E daylight
28 May - 21:03:34 10° WNW 21:08:04 89° NNE 21:12:31 10° ESE daylight
28 May - 22:45:45 10° W 22:49:12 22° SW 22:52:37 10° S daylight
29 May - 14:34:07 10° S 14:37:44 23° SE 14:41:20 10° E daylight
29 May - 16:14:17 10° WSW 16:18:55 90° N 16:23:28 10° ENE daylight
29 May - 17:56:25 10° W 18:00:48 44° N 18:05:07 10° ENE daylight
29 May - 19:38:28 10° WNW 19:42:54 52° NNE 19:47:16 10° E daylight
29 May - 21:20:08 10° WNW 21:24:32 56° SSW 21:28:52 10° SE daylight
29 May - 23:03:56 10° WSW 23:05:19 11° SW 23:06:42 10° SSW daylight
30 May - 14:49:39 10° SSW 14:54:00 41° SE 14:58:18 10° ENE daylight
30 May - 16:30:54 10° W 16:35:29 62° NNW 16:40:00 10° ENE daylight
30 May - 18:13:11 10° WNW 18:17:32 42° N 18:21:49 10° ENE daylight
30 May - 19:55:01 10° WNW 19:59:32 71° NNE 20:03:58 10° ESE daylight
30 May - 21:36:53 10° WNW 21:40:51 31° SW 21:44:46 10° SSE daylight
31 May - 13:26:35 10° S 13:29:24 16° SE 13:32:12 10° E daylight
31 May - 15:05:46 10° SW 15:10:23 70° SSE 15:14:57 10° ENE daylight
31 May - 16:47:40 10° W 16:52:08 48° N 16:56:33 10° ENE daylight
31 May - 18:29:51 10° WNW 18:34:16 46° N 18:38:36 10° E daylight
31 May - 20:11:32 10° WNW 20:16:03 76° SSW 20:20:29 10° ESE daylight
31 May - 21:54:08 10° W 21:57:02 17° SW 21:59:55 10° S daylight
01 Jun - 13:41:34 10° SSW 13:45:35 29° SE 13:49:34 10° E daylight
01 Jun - 15:22:15 10° WSW 15:26:53 76° NNW 15:31:28 10° ENE daylight
01 Jun - 17:04:28 10° WNW 17:08:52 42° N 17:13:11 10° ENE daylight
01 Jun - 18:46:26 10° WNW 18:50:56 58° NNE 18:55:21 10° E daylight
01 Jun - 20:28:09 10° WNW 20:32:28 44° SW 20:36:41 10° SE daylight
02 Jun - 12:20:05 10° SE 12:21:06 11° SE 12:22:06 10° ESE daylight
02 Jun - 13:57:23 10° SW 14:01:53 51° SE 14:06:22 10° ENE daylight
02 Jun - 15:38:57 10° W 15:43:30 55° NNW 15:48:00 10° ENE daylight
02 Jun - 17:21:12 10° WNW 17:25:36 43° N 17:29:56 10° ENE daylight
02 Jun - 19:02:58 10° WNW 19:07:32 83° NNE 19:12:01 10° ESE daylight
02 Jun - 20:45:04 10° W 20:48:43 25° SW 20:52:20 10° SSE daylight
03 Jun - 12:33:44 10° S 12:37:12 21° SE 12:40:40 10° E daylight
03 Jun - 14:13:40 10° WSW 14:18:20 85° SSE 14:22:57 10° ENE daylight
03 Jun - 15:55:44 10° W 16:00:12 45° N 16:04:35 10° ENE daylight
03 Jun - 17:37:50 10° WNW 17:42:19 50° NNE 17:46:43 10° E daylight
03 Jun - 19:19:30 10° WNW 19:24:00 62° SSW 19:28:24 10° SE daylight
03 Jun - 21:02:48 10° WSW 21:04:51 13° SW 21:06:53 10° SSW daylight
04 Jun - 12:49:09 10° SSW 12:53:26 37° SE 12:57:43 10° ENE daylight
04 Jun - 14:30:15 10° WSW 14:34:53 66° NNW 14:39:28 10° ENE daylight
04 Jun - 16:12:31 10° WNW 16:16:55 42° N 16:21:16 10° ENE daylight
04 Jun - 17:54:24 10° WNW 17:58:58 67° NNE 18:03:26 10° ESE daylight
04 Jun - 19:36:13 10° WNW 19:40:21 35° SW 19:44:24 10° SSE daylight
